Terminal Aerodrome Forecast
Issued by NWS Sioux Falls, SD

Home | Current Version | Previous Version | Text Only | Print | Product List | Glossary On
Versions: 1 2 3 4 5 6 7 8 9 10 11 12 13
000
FTUS43 KFSD 061732
TAFSUX
TAF
KSUX 061732Z 0618/0718 31020G30KT P6SM FEW035
     FM070400 31015G22KT P6SM FEW040
     FM071600 31018G25KT P6SM FEW035 SCT100=

USA.gov is the U.S. government's official web portal to all federal, state and local government web resources and services.